Regional Weather Roundup
Issued by NWS

Home | Current Version | Previous Version | Text Only | Print | Product List | Glossary Off
Versions: 1 2 3 4 5 6 7 8 9 10 11 12 13 14 15 16 17 18 19 20 21 22 23 24 25 26 27 28 29 30 31 32 33 34 35 36 37 38 39 40 41 42 43 44 45 46 47 48 49 50

296
ASUS43 KIND 251559
RWRIN

WEATHER ROUNDUP FOR INDIANA
NATIONAL WEATHER SERVICE INDIANAPOLIS IN
1200 PM EDT MON JUL 25 2016

NOTE: "FAIR" INDICATES FEW OR NO CLOUDS BELOW 12,000 FEET WITH NO
SIGNIFICANT WEATHER AND/OR OBSTRUCTIONS TO VISIBILITY.

* - STATION DOES NOT REPORT WEATHER SUCH AS PRECIPITATION OR FOG.

+ - STATION NOT QUALITY CONTROLLED BY THE NATIONAL WEATHER SERVICE.
    USE DATA WITH CAUTION...ESPECIALLY DEWPOINT AND RELATIVE
    HUMIDITY OBSERVATIONS.

INZ001>003-010>013-019-020-251700-
NORTHWEST INDIANA

CITY           SKY/WX    TMP DP  RH WIND       PRES   REMARKS
GARY /AIRPORT/ PTSUNNY   81 N/A N/A N12       30.02R
KNOX *+        CLOUDY    79  64  61 N7        30.00S
MONTICELLO +   CLOUDY    78  69  73 SW6       30.00S
RENSSELAER +   CLOUDY    79  72  78 CALM      30.02R

$$

LMZ046-743>745-251700-
SOUTHERN LAKE MICHIGAN

STATION/POSITION TIME  TEMP    WIND        PRES    WAVE
                       AIR SEA DIR/SP/G            HT
                 (UTC) (F)     (DEG/KT/KT) (MB)    (FT)
BURNS HARBOR     1500   74     340/  9/ 12 1016.3R
MICHIGAN CITY    1500   75     320/ 10/ 11   N/A
5NW MICH CITY    1500   74 73  330/ 10/ 12   N/A     2

$$

INZ004-005-014>016-021>024-251700-
NORTH CENTRAL INDIANA

CITY           SKY/WX    TMP DP  RH WIND       PRES   REMARKS
ELKHART        SUNNY     81  73  78 W6        30.00R
GOSHEN         PTSUNNY   80  69  69 W5        30.00R
PERU/GRISSOM   CLOUDY    81  72  73 SW9       30.00S
SOUTH BEND     CLOUDY    81  68  64 NW8       30.01R
WARSAW +         N/A     79  70  73 W8        30.02R

$$

INZ006>009-017-018-025>027-251700-
NORTHEAST INDIANA

CITY           SKY/WX    TMP DP  RH WIND       PRES   REMARKS
ANGOLA *+      MOSUNNY   82  75  78 NW9       30.00R
FORT WAYNE     CLOUDY    79  69  71 SW7       30.01S

$$

INZ028-029-035-036-043>045-051>053-251700-
WEST CENTRAL INDIANA

CITY           SKY/WX    TMP DP  RH WIND       PRES   REMARKS
CRAWFORDSVL +  CLOUDY    80  71  75 NW5       30.04S
LAFAYETTE      CLOUDY    81  73  76 W6        30.00F
TERRE HAUTE    MOSUNNY   84  70  62 CALM      30.03R

$$

INZ030>032-037>040-046>048-054>057-064-065-251700-
CENTRAL INDIANA

CITY           SKY/WX    TMP DP  RH WIND       PRES   REMARKS
COLUMBUS       SUNNY     82  73  74 CALM      30.02S
INDIANAPOLIS   CLOUDY    84  67  56 NW9       30.04R
-EAGLE CREEK   CLOUDY    83  66  56 NW9       30.03R
KOKOMO *+      MOSUNNY   82  68  61 W9        30.01F
SHELBYVILLE    MOSUNNY   87  72  60 NW6       30.03R
ZIONSVILLE +   CLOUDY    79  68  70 W6        30.05R

$$

INZ033-034-041-042-049-050-058-059-251700-
EAST CENTRAL INDIANA

CITY           SKY/WX    TMP DP  RH WIND       PRES   REMARKS
MUNCIE         PTSUNNY   81  69  67 NW6       30.04R

$$

INZ060-061-067>069-081>083-085>088-251700-
SOUTHWEST INDIANA

CITY           SKY/WX    TMP DP  RH WIND       PRES   REMARKS
EVANSVILLE     PTSUNNY   88  77  69 SW7       30.02R HX 100
HUNTINGBURG *+ MOSUNNY   88  75  66 SW7       30.02S HX  97
WASHINGTON +   PTSUNNY   84  75  73 MISG      30.02S

$$

INZ062-063-066-070>080-084-089>092-251700-
SOUTH CENTRAL AND SOUTHEAST INDIANA

CITY           SKY/WX    TMP DP  RH WIND       PRES   REMARKS
BLOOMINGTON    PTSUNNY   84  72  67 CALM      30.03R
MADISON *+     CLOUDY    90  72  55 W6        30.04S HX  96

$$





USA.gov is the U.S. government's official web portal to all federal, state and local government web resources and services.